Meath Environmental Platform

Observations for Trim Patrick St

Time AQI Temp °C Hum % Pres Pa CO μg/m³ H₂S μg/m³ NO μg/m³ NO₂ μg/m³ O₃ μg/m³ SO₂ μg/m³ PM1 μg/m³ PM2.5 μg/m³ PM10 μg/m³
Thursday 6 August 2026
18:57 3 24.8 42 68,920 0 2.97 1.77 9.88 53.6 7.42 2.86 10.02 11.02
18:56 3 24.7 42 68,910 0 3.67 1.35 14.19 45.21 7.31 2.86 8.46 9.3
18:55 3 24.7 43 68,890 0 8.18 1.38 22.02 55.89 8.2 2.86 7.64 8.4
18:54 3 24.6 43 68,896 0 8.85 1.51 25.02 58.18 8.11 2 7.64 8.4
18:53 3 24.6 42 68,908 0 5.43 1.32 12.84 58.67 7.73 2.86 9.22 10.15
18:52 3 24.6 43 68,890 0 4.68 1.38 11.58 55.97 7.75 2.86 8.42 9.26
18:51 3 24.5 43 68,898 0 6.04 1.54 12.24 54.34 7.76 2 6.87 7.55
18:50 3 24.5 43 68,908 0 6.04 1.78 19.65 57.22 7.48 2.86 8.4 9.24
18:49 3 24.4 44 68,894 0 10.43 1.46 14.2 56.78 8.41 2 7.6 8.36
18:48 3 24.3 44 68,876 0 12 1.49 27.51 56.39 8.16 2 7.57 8.33
18:47 3 24.3 44 68,882 0 14.15 1.29 37.59 50.87 8.82 2 6.79 7.47
18:46 3 24.2 44 68,892 0 13.67 1.37 26.56 58.85 8.61 2 6.8 7.48
18:45 3 24.2 44 68,902 0 13.36 1.24 27.87 59.22 8.23 2 6.8 7.48
18:44 3 24.2 44 68,916 0 15.37 1.35 26.91 59.4 8.52 2 8.36 9.2
18:43 3 24.1 44 68,904 0 15.46 1.39 32.47 57.95 8.61 2 6.82 7.5
18:42 3 24.1 44 68,892 0 13.23 1.56 28.26 58.85 7.81 2 6.82 7.51
18:41 3 24.1 44 68,880 0 16.07 1.45 34.08 58.79 7.61 2 6.82 7.51
18:40 3 24.1 44 68,863 0 16.28 1.52 32.46 58.81 8.2 2 7.6 8.36
18:39 3 24 43 68,865 0 15.35 1.38 37.97 58.29 7.81 2 7.61 8.37
18:38 3 23.9 43 68,871 0 15.46 1.54 28 63.17 8.17 2 6.84 7.53